Location: Sternwarte-Kraichtal
(49.1689°N, 8.6996°E)
Time: 20:53:25
(UTC+02:00)

Vanguard 2 Rocket - Pass Details

Date: 04 June 2022
Orbit: 553 x 3323 km, 32.9° (Epoch: 02 July)

Event Time Altitude Azimuth Distance (km) Brightness Sun altitude
Rises 11:34:43 0° 220° (SW) 6,494 11.3 55.7°
Reaches altitude 10° 11:39:14 10° 212° (SSW) 5,768 11.2 56.3°
Maximum altitude 11:55:18 36° 155° (SSE) 4,440 11.9 58.1°
Drops below altitude 10° 12:11:41 10° 98° (E) 5,913 11.5 59.7°
Sets 12:16:20 0° 91° (E) 6,671 11.5 60.2°
